Wind_Speed
94 83 67 52 40 26 20 20 30 40 51 61 74 80 85 88 86 88 85 95 99 95 91 86 82 81 76 78 73 75 77 75 81 87 92 95 98 98 100 103 102 104 104 105 103 102 98
106 92 83 67 54 38 27 19 13 24 34 43 55 64 72 87 87 87 85 87 93 93 91 87 87 85 87 85 82 78 81 84 83 85 82 84 88 93 95 97 100 102 105 105 105 103 100
113 103 95 83 69 53 39 25 13 9 20 31 39 43 52 87 94 95 92 85 80 81 88 88 89 89 88 87 84 85 86 86 86 82 80 80 80 85 89 90 92 95 99 103 105 107 103
115 112 101 98 83 66 51 37 23 9 6 14 22 28 40 59 75 100 96 87 83 76 79 83 89 86 83 85 85 86 88 89 88 84 84 83 81 79 78 83 88 89 91 96 101 105 107
112 117 109 104 98 84 62 47 36 24 14 2 12 26 42 50 60 82 90 84 83 80 76 80 84 89 84 84 88 86 85 84 84 82 83 80 79 77 75 76 78 81 82 88 97 99 98
111 117 119 112 105 98 88 64 48 42 30 14 3 15 27 40 50 62 83 86 84 78 69 69 76 81 85 81 77 75 70 75 75 74 70 70 71 73 71 70 70 75 79 82 87 91 89
111 116 120 121 113 105 95 88 71 51 43 35 23 9 15 29 42 55 69 79 80 61 60 61 63 61 61 64 66 66 64 62 60 58 61 62 64 61 59 62 65 68 68 70 71 75 75
109 111 114 118 118 111 102 89 86 72 54 44 36 24 12 15 33 40 42 42 45 50 45 48 49 43 48 50 47 42 44 45 48 51 54 54 53 51 52 53 54 56 58 58 56 58 59
111 111 112 112 115 116 110 101 85 81 74 56 44 32 24 19 21 25 25 28 30 32 38 39 35 34 32 31 32 36 39 44 42 39 41 43 44 44 42 44 45 47 46 48 50 50 50
122 115 108 107 108 111 114 108 98 83 74 70 61 45 34 26 28 27 22 21 23 25 23 25 26 25 27 32 36 40 38 36 33 30 29 31 32 32 34 34 34 35 35 37 38 39 39
120 118 119 104 102 104 107 109 104 93 80 69 62 58 50 37 28 18 16 16 17 21 17 20 20 22 24 26 23 22 21 19 18 17 17 15 14 16 18 20 23 26 27 26 26 28 30
118 120 120 120 101 98 99 102 103 101 92 76 64 54 48 44 40 32 24 18 14 13 13 13 14 14 13 12 12 9 7 7 7 8 9 9 10 11 13 15 18 20 22 23 24 26 28
114 116 115 122 112 98 94 93 97 96 100 91 77 60 50 44 39 35 32 28 26 23 22 19 18 18 16 12 10 7 5 4 3 1 1 6 7 5 4 6 4 6 7 8 13 16 19
106 111 117 117 115 111 95 90 88 89 88 94 93 81 63 51 44 39 36 31 28 24 19 18 17 16 15 17 17 14 14 19 17 19 22 15 17 15 13 13 12 13 13 13 11 11 12
95 102 108 114 113 112 107 96 87 83 84 84 87 87 83 65 52 44 44 41 39 38 35 35 33 35 34 30 28 30 32 30 29 26 25 24 23 20 18 18 18 20 20 21 19 15 11
87 97 101 104 109 109 104 100 96 82 80 80 81 84 84 80 79 60 49 46 47 46 47 48 48 45 40 39 39 38 36 33 30 29 28 28 23 23 22 21 22 22 22 21 24 22 19
80 85 97 95 102 105 103 99 98 92 78 76 75 77 79 80 77 77 72 63 56 52 52 52 50 48 50 48 46 43 40 37 34 34 35 33 29 29 27 27 25 24 23 23 24 23 24
77 74 83 90 95 95 96 101 94 93 94 79 72 69 70 74 76 78 78 75 69 60 58 59 59 57 55 55 56 54 51 48 45 45 48 48 43 39 37 34 31 30 30 26 26 25 26
68 75 72 80 87 89 90 93 95 93 93 90 80 68 65 63 66 68 69 68 66 64 59 53 51 51 53 54 55 53 51 51 52 53 54 52 52 52 50 47 42 38 36 33 32 30 27
60 68 70 69 76 83 82 91 91 90 87 87 82 79 65 59 55 55 57 58 57 58 57 55 52 48 48 49 50 49 47 48 47 49 49 50 50 49 46 44 47 49 47 45 41 35 34
54 62 65 67 66 73 76 78 86 85 85 89 78 85 70 69 52 49 46 46 46 48 48 47 46 45 43 42 41 42 44 43 42 43 44 44 43 42 42 42 43 45 46 47 47 45 43
49 55 58 63 63 65 68 73 78 81 78 83 91 80 83 78 69 54 44 43 39 38 37 38 38 37 37 36 36 38 38 38 37 38 38 38 38 39 39 38 38 39 40 40 39 39 42
45 47 53 53 60 59 61 65 67 71 75 76 81 87 81 78 76 66 58 43 36 33 31 31 30 28 29 30 30 30 31 32 32 32 34 34 34 34 34 34 33 33 34 35 36 37 37
47 46 47 47 55 55 58 61 63 65 67 67 75 72 77 79 72 74 70 59 53 37 32 29 28 27 26 23 22 23 23 24 24 25 25 26 27 28 29 28 28 28 28 28 28 28 29
48 52 41 40 49 49 57 54 61 60 61 63 65 66 70 76 78 71 69 69 60 52 44 33 27 25 24 25 24 21 21 22 22 22 22 21 21 22 23 22 23 24 23 22 21 20 20
55 47 41 45 47 45 50 49 56 59 57 60 59 63 64 68 74 78 72 64 67 57 49 45 40 30 25 22 20 21 22 21 20 20 22 22 23 24 25 24 22 22 21 19 17 17 14
53 51 45 42 42 39 48 51 52 52 52 52 57 58 62 69 74 70 72 69 62 60 61 53 44 40 35 30 27 23 20 20 20 19 19 20 22 22 23 24 25 25 25 24 22 19 18
48 50 45 44 41 44 44 51 53 55 50 53 53 52 61 63 66 65 69 70 67 56 59 57 57 44 38 36 35 32 30 27 24 21 20 20 19 19 20 21 23 24 25 26 27 26 25
54 54 56 49 48 51 50 52 49 61 52 53 47 52 54 61 63 63 67 70 67 64 60 52 54 51 45 37 34 35 36 36 33 30 27 22 20 19 22 20 18 19 22 23 23 26 27
Wind_Direction
12 13 13 11 8 357 334 291 256 246 241 238 237 239 238 231 228 224 224 226 227 232 234 232 235 240 244 242 243 250 249 254 253 250 249 251 252 253 251 248 249 249 249 248 245 244 244
15 19 23 20 18 14 7 351 290 249 240 238 235 238 235 232 229 227 227 227 227 230 231 234 234 232 242 239 241 244 249 249 251 253 252 252 251 251 252 251 251 251 250 249 248 245 244
19 20 28 29 25 22 21 13 355 268 239 235 234 231 227 227 225 227 230 226 224 227 228 230 235 237 237 238 244 246 245 250 254 256 256 255 255 255 254 253 255 255 252 250 249 247 247
21 25 28 34 34 30 26 28 21 3 266 230 237 216 210 215 219 220 225 223 223 225 229 230 233 237 241 242 245 247 250 253 255 257 260 260 261 261 257 255 254 253 251 251 251 250 249
21 26 30 34 37 39 33 33 39 38 41 41 196 193 200 205 207 214 219 219 223 229 234 232 233 236 240 243 247 251 255 255 259 260 261 263 262 262 259 257 254 254 251 250 251 250 248
22 25 30 34 36 39 40 37 41 46 47 46 130 202 204 202 197 205 213 216 224 231 233 233 235 238 242 246 251 257 258 260 262 261 260 260 261 260 259 257 255 253 250 249 251 253 253
23 25 29 31 35 37 37 43 40 47 52 49 52 82 169 185 185 195 206 215 223 228 232 236 240 244 247 248 251 254 257 257 259 261 263 263 260 258 257 255 255 253 254 257 257 257 258
25 26 28 32 32 39 39 37 43 43 47 55 61 66 116 153 175 183 190 199 210 223 228 237 243 249 246 247 250 256 262 265 264 261 260 260 257 254 253 255 257 258 257 256 259 260 260
26 28 27 30 33 34 40 39 40 44 48 54 56 70 87 96 137 166 175 183 195 209 224 237 242 243 247 250 255 257 259 259 257 256 252 249 250 255 258 258 260 262 263 262 262 263 262
27 29 28 29 31 34 35 40 41 42 47 48 53 63 73 89 119 139 153 178 195 209 216 221 224 235 250 255 253 257 259 261 254 251 254 258 260 261 265 266 265 265 264 264 264 266 265
27 26 29 27 31 32 36 37 40 42 42 48 51 53 56 68 80 101 126 154 178 188 192 213 230 246 251 253 250 246 242 248 251 253 253 262 264 266 273 274 277 277 276 275 274 270 266
29 29 28 28 28 31 34 37 40 42 43 43 47 53 55 57 63 72 84 100 121 139 155 171 182 187 186 180 183 205 207 224 242 253 268 269 277 277 272 272 274 280 283 286 284 280 274
26 28 27 26 29 28 32 35 37 41 44 45 46 48 51 55 62 66 69 78 87 91 95 112 121 132 137 141 153 147 141 135 141 271 198 220 185 170 223 215 267 321 316 299 280 277 281
22 25 29 27 28 30 30 33 36 37 42 48 47 45 47 58 64 72 75 75 82 89 95 100 113 117 125 115 98 87 116 112 125 110 103 100 88 74 69 57 53 28 25 15 2 352 325
21 20 25 29 27 27 29 30 31 36 37 39 45 50 51 49 52 63 75 81 85 88 89 87 89 84 80 86 96 89 77 73 71 68 65 60 61 61 55 55 51 41 37 26 23 17 16
20 18 21 25 27 29 30 30 31 29 35 38 40 43 48 51 50 53 63 72 79 82 83 82 83 83 83 79 76 72 70 70 71 69 66 65 63 64 65 66 59 47 45 45 36 31 30
20 19 17 21 22 26 29 29 32 32 29 34 38 38 42 44 49 51 51 55 62 70 75 80 82 80 77 75 76 75 75 75 77 76 76 74 70 76 76 72 70 67 60 57 52 46 47
16 19 19 19 20 23 28 29 31 34 32 27 33 38 40 38 41 45 50 51 51 56 64 70 75 79 80 79 79 78 79 80 80 85 87 85 79 75 73 72 71 70 69 61 65 62 55
15 15 18 18 17 19 23 25 30 31 33 31 29 30 34 41 39 42 46 49 54 54 55 62 71 75 78 80 80 79 79 81 83 82 83 83 80 77 73 70 68 70 71 73 67 68 67
12 10 12 17 15 16 20 20 23 23 28 31 29 31 29 32 38 42 42 45 47 50 55 56 57 64 69 72 74 77 78 79 81 81 80 79 75 73 72 71 67 65 65 66 68 72 74
4 7 10 11 12 14 16 18 19 21 23 26 33 31 31 29 31 32 41 42 43 46 48 52 54 56 57 60 62 66 67 68 71 72 71 72 73 73 70 66 63 60 61 60 60 63 67
359 358 5 5 8 10 11 14 13 15 20 21 26 26 26 25 29 29 30 30 38 37 40 44 44 46 48 51 54 53 54 56 57 58 59 59 61 61 61 58 54 54 54 53 59 60 59
351 351 356 0 4 6 5 9 11 13 15 15 18 22 25 24 27 28 27 25 26 26 32 31 33 38 39 39 40 43 44 44 44 43 41 42 45 47 49 52 55 50 43 44 42 41 44
345 343 349 349 354 359 3 3 5 8 7 13 14 14 20 21 21 20 24 27 22 20 18 19 21 19 20 22 27 29 31 33 32 34 34 34 31 28 28 32 35 39 41 38 35 35 35
334 337 340 343 345 351 353 358 2 2 4 4 10 12 13 15 17 16 18 21 21 19 15 11 6 7 12 10 6 8 7 8 9 10 12 14 14 14 13 14 14 16 19 24 27 28 22
323 325 330 332 338 344 345 354 355 357 0 0 1 4 8 9 10 10 13 11 16 19 16 8 360 356 351 352 356 355 353 353 354 355 355 355 355 355 354 355 354 354 353 353 357 359 5
317 318 322 326 338 335 340 343 349 353 353 357 360 358 0 2 4 2 5 5 6 15 17 17 7 357 348 340 336 335 336 339 339 341 343 343 343 343 342 344 344 344 344 343 340 337 333
309 315 314 314 328 321 326 332 337 345 345 347 348 354 357 357 358 359 0 360 3 2 10 18 16 5 356 346 336 325 322 321 321 321 327 335 336 334 333 334 335 336 337 340 339 337 334
301 302 307 311 317 319 320 324 325 330 334 343 338 343 349 354 353 353 357 357 356 358 360 6 12 15 9 353 342 336 323 314 312 311 312 317 313 314 312 317 316 324 326 328 329 331 331
Height
10457 10429 10394 10370 10353 10343 10335 10328 10325 10328 10332 10341 10351 10358 10379 10405 10423 10443 10460 10478 10490 10503 10521 10538 10546 10551 10562 10570 10576 10581 10584 10588 10591 10594 10600 10608 10617 10621 10623 10629 10636 10639 10643 10650 10654 10661 10671
10460 10430 10394 10368 10351 10339 10331 10326 10322 10321 10325 10332 10340 10347 10367 10391 10411 10428 10447 10463 10477 10494 10510 10524 10532 10536 10550 10556 10561 10566 10572 10573 10577 10582 10589 10595 10599 10601 10605 10610 10616 10620 10621 10627 10632 10639 10647
10472 10433 10402 10375 10353 10340 10331 10326 10322 10321 10322 10327 10331 10344 10363 10383 10403 10421 10437 10455 10471 10482 10494 10508 10519 10528 10536 10543 10549 10554 10558 10561 10566 10571 10575 10579 10584 10588 10591 10595 10597 10600 10602 10605 10610 10619 10625
10484 10449 10416 10388 10366 10350 10339 10331 10326 10325 10325 10328 10334 10344 10357 10369 10388 10408 10427 10448 10461 10472 10484 10497 10506 10518 10526 10532 10538 10543 10547 10551 10556 10560 10564 10567 10569 10572 10574 10575 10577 10578 10584 10585 10587 10594 10601
10494 10465 10432 10400 10380 10362 10352 10343 10335 10331 10329 10332 10335 10342 10348 10360 10378 10398 10418 10439 10454 10464 10476 10485 10497 10508 10516 10523 10528 10532 10537 10543 10546 10548 10550 10552 10554 10554 10556 10556 10559 10561 10567 10567 10565 10568 10577
10501 10476 10445 10419 10395 10379 10367 10359 10349 10340 10336 10337 10341 10346 10354 10361 10375 10394 10413 10430 10448 10459 10469 10479 10490 10499 10507 10511 10517 10522 10526 10529 10531 10532 10534 10536 10538 10538 10538 10540 10542 10543 10545 10548 10549 10551 10565
10513 10487 10463 10437 10417 10397 10385 10375 10364 10356 10350 10347 10349 10355 10361 10369 10379 10393 10409 10429 10442 10458 10468 10475 10483 10490 10497 10504 10508 10511 10514 10517 10519 10521 10522 10523 10521 10522 10524 10525 10527 10530 10538 10541 10544 10545 10555
10528 10506 10486 10466 10447 10424 10408 10397 10384 10378 10371 10365 10365 10369 10377 10385 10395 10403 10418 10435 10447 10456 10463 10472 10480 10488 10493 10496 10501 10504 10508 10510 10509 10510 10509 10508 10508 10510 10513 10516 10521 10524 10526 10526 10530 10533 10540
10543 10523 10505 10487 10471 10454 10432 10419 10410 10398 10396 10390 10385 10389 10393 10402 10409 10418 10427 10437 10446 10455 10463 10471 10479 10485 10489 10493 10495 10498 10500 10498 10498 10500 10498 10496 10498 10502 10507 10509 10511 10512 10517 10518 10518 10520 10524
10566 10544 10528 10510 10494 10477 10462 10444 10432 10423 10415 10411 10411 10411 10411 10413 10418 10426 10434 10440 10447 10455 10464 10472 10476 10480 10483 10485 10488 10489 10490 10491 10491 10491 10493 10495 10497 10500 10501 10503 10504 10506 10507 10508 10510 10511 10512
10587 10567 10549 10534 10517 10501 10488 10470 10459 10448 10440 10433 10430 10429 10429 10431 10432 10435 10439 10443 10448 10456 10462 10468 10471 10475 10478 10482 10485 10485 10487 10488 10488 10490 10491 10493 10494 10496 10497 10497 10497 10497 10499 10501 10502 10501 10500
10607 10588 10572 10553 10539 10526 10511 10499 10487 10475 10465 10460 10452 10449 10448 10448 10446 10447 10449 10451 10454 10457 10460 10465 10470 10476 10478 10481 10483 10484 10486 10486 10486 10486 10487 10489 10490 10491 10492 10492 10491 10493 10494 10495 10494 10492 10493
10626 10608 10592 10575 10559 10545 10535 10522 10511 10504 10492 10484 10477 10471 10465 10461 10459 10460 10461 10461 10462 10465 10467 10471 10474 10477 10479 10482 10483 10484 10485 10485 10486 10486 10487 10489 10490 10489 10488 10488 10487 10488 10489 10489 10488 10486 10485
10644 10629 10613 10599 10583 10567 10553 10545 10534 10525 10520 10510 10499 10492 10490 10485 10480 10474 10471 10469 10470 10470 10474 10477 10479 10481 10484 10486 10486 10488 10489 10487 10487 10487 10488 10488 10488 10487 10485 10486 10485 10485 10485 10485 10484 10484 10482
10657 10645 10632 10618 10604 10590 10577 10563 10553 10545 10536 10530 10523 10517 10512 10506 10500 10494 10488 10485 10484 10483 10485 10488 10489 10488 10488 10492 10494 10490 10488 10487 10486 10487 10488 10487 10487 10486 10486 10486 10487 10484 10484 10484 10484 10484 10480
10671 10659 10648 10636 10625 10609 10597 10584 10572 10561 10553 10546 10537 10533 10529 10524 10519 10516 10506 10499 10495 10494 10493 10492 10493 10496 10498 10498 10495 10494 10494 10493 10493 10493 10493 10493 10492 10491 10490 10490 10489 10487 10487 10486 10486 10485 10482
10683 10672 10661 10650 10639 10629 10616 10604 10592 10580 10571 10562 10555 10548 10542 10538 10536 10532 10519 10516 10512 10508 10504 10505 10507 10506 10503 10503 10504 10504 10503 10503 10502 10500 10500 10500 10500 10499 10497 10495 10494 10493 10491 10490 10490 10488 10486
10694 10684 10675 10665 10654 10646 10634 10625 10611 10603 10592 10581 10575 10568 10559 10552 10548 10540 10534 10532 10532 10529 10524 10520 10518 10518 10518 10516 10516 10515 10516 10516 10513 10511 10510 10509 10509 10506 10505 10504 10501 10500 10497 10494 10493 10492 10489
10705 10695 10686 10677 10668 10659 10649 10640 10632 10622 10614 10604 10593 10584 10580 10573 10566 10560 10555 10555 10554 10552 10550 10546 10541 10537 10534 10532 10530 10529 10529 10528 10526 10523 10520 10519 10518 10517 10516 10514 10510 10507 10503 10500 10497 10495 10495
10712 10705 10696 10688 10680 10672 10662 10654 10645 10639 10632 10622 10615 10606 10597 10590 10586 10581 10575 10572 10570 10568 10565 10562 10561 10559 10555 10551 10548 10546 10545 10541 10539 10536 10533 10531 10528 10526 10527 10525 10522 10516 10512 10508 10505 10502 10500
10718 10712 10706 10698 10688 10682 10674 10666 10658 10650 10644 10636 10629 10624 10617 10608 10600 10597 10592 10588 10585 10581 10578 10576 10574 10572 10570 10568 10566 10562 10558 10556 10554 10550 10547 10544 10542 10540 10537 10533 10530 10526 10522 10517 10514 10512 10509
10723 10716 10711 10706 10697 10688 10683 10677 10670 10661 10653 10646 10641 10635 10628 10622 10615 10609 10603 10599 10595 10593 10590 10587 10585 10582 10580 10576 10574 10571 10568 10565 10563 10560 10557 10555 10552 10549 10545 10541 10537 10533 10530 10527 10525 10522 10518
10725 10720 10715 10710 10706 10698 10690 10684 10678 10672 10663 10657 10652 10645 10639 10631 10625 10620 10615 10610 10604 10601 10598 10595 10592 10589 10586 10584 10581 10578 10575 10573 10570 10566 10562 10560 10557 10555 10552 10549 10545 10542 10538 10534 10529 10525 10523
10724 10721 10716 10711 10707 10703 10697 10689 10683 10678 10672 10664 10659 10652 10645 10640 10636 10629 10621 10616 10612 10606 10603 10599 10596 10594 10591 10589 10586 10583 10581 10578 10576 10573 10570 10566 10562 10559 10557 10555 10552 10550 10546 10542 10538 10534 10530
10721 10719 10717 10710 10707 10703 10700 10694 10689 10684 10678 10672 10665 10660 10653 10647 10644 10636 10631 10624 10618 10613 10607 10604 10601 10597 10594 10591 10588 10585 10583 10581 10578 10576 10574 10572 10569 10566 10562 10559 10556 10553 10551 10549 10548 10545 10540
10718 10716 10714 10710 10706 10703 10700 10695 10691 10687 10681 10675 10670 10664 10658 10653 10648 10644 10639 10632 10626 10618 10612 10606 10601 10598 10596 10593 10590 10588 10585 10582 10580 10578 10575 10573 10570 10568 10566 10562 10559 10556 10553 10551 10549 10547 10546
10714 10710 10708 10708 10704 10700 10697 10695 10691 10687 10683 10678 10673 10668 10661 10656 10652 10648 10644 10641 10633 10625 10617 10610 10605 10599 10595 10593 10590 10588 10585 10583 10581 10579 10577 10575 10573 10570 10567 10564 10561 10557 10554 10550 10548 10546 10543
10710 10707 10703 10701 10700 10697 10695 10691 10689 10686 10682 10678 10673 10668 10665 10658 10653 10649 10644 10641 10636 10631 10625 10617 10608 10601 10596 10591 10587 10585 10583 10582 10579 10576 10575 10574 10572 10569 10566 10563 10560 10557 10554 10551 10548 10545 10542
10700 10700 10698 10695 10694 10691 10689 10688 10683 10683 10680 10676 10671 10666 10662 10659 10654 10648 10643 10639 10635 10631 10627 10621 10614 10607 10598 10592 10587 10582 10579 10575 10574 10572 10570 10570 10566 10564 10561 10559 10556 10554 10551 10549 10546 10542 10539